Location: LC-39B
(28.6273°N, 80.6211°W)
Time: 10:22:17
(UTC+00:00)

ISS - Visible Passes

Search period start: 05 March 2015 00:00
Search period end: 15 March 2015 00:00
Orbit: 394 x 406 km, 51.6° (Epoch: 04 March)

Date Brightness Start Highest point End Pass type
(mag) Time Alt. Az. Time Alt. Az. Time Alt. Az.
07 Mar -0.4 10:34:00 10° SSE 10:35:56 15° SE 10:37:58 10° E visible
08 Mar -3.4 11:14:52 10° SW 11:18:04 68° NW 11:21:16 10° NE visible
09 Mar -2.3 10:22:12 21° SSW 10:23:57 43° SE 10:27:02 10° ENE visible
10 Mar -0.3 09:30:55 15° E 09:30:55 15° E 09:32:02 10° E visible
10 Mar -2.0 11:03:30 11° W 11:05:59 24° NW 11:08:41 10° NNE visible
11 Mar -3.0 10:11:52 53° N 10:11:52 53° N 10:14:39 10° NE visible
12 Mar 0.1 09:19:55 11° NE 09:19:55 11° NE 09:20:03 10° NE visible
12 Mar -1.1 10:52:27 11° NW 10:53:29 12° NW 10:54:37 10° NNW visible
13 Mar -0.9 10:00:13 15° N 10:00:13 15° N 10:01:09 10° NNE visible
